Weather History for PFYU - September, 2012

Change the Weather History Date:

Saturday, September 22, 2012

  Actual Average Record
Temperature  
Mean Temperature 50 °F -  
Max Temperature 60 °F 43 °F 60 °F (2012)
Min Temperature 41 °F 28 °F 17 °F (2007)
Degree Days  
Heating Degree Days 14    
Moisture  
Dew Point 40 °F    
Average Humidity 70    
Maximum Humidity 93    
Minimum Humidity 44    
Precipitation  
Precipitation 0.00 in - - ()
Sea Level Pressure  
Sea Level Pressure 29.53 in    
Wind  
Wind Speed 8 mph (ENE)    
Max Wind Speed 15 mph    
Max Gust Speed 21 mph    
Visibility 10 miles    
Events      
Averages and records for this station are not official NWS values.
T = Trace of Precipitation, MM = Missing Value Source: NWS Daily Summary

Daily Weather History Graph

Daily Weather History Graph

Search for Another Location

Airport or City:

Trip Planner

Search our weather history database for the weather conditions in past years. The results will help you decide how hot, cold, wet, or windy it might be!

Date:

Astronomy

Sep. 22, 2012 Rise Set
Actual Time 7:25 AM AKDT 7:39 PM AKDT
Civil Twilight 6:32 AM AKDT 8:32 PM AKDT
Nautical Twilight 5:27 AM AKDT 9:36 PM AKDT
Astronomical Twilight 4:09 AM AKDT 10:53 PM AKDT
Moon 5:46 PM AKDT (9/22) 10:03 PM AKDT (9/22)
Length of Visible Light 13h 59m
Length of Day
12h 14m
Waxing Crescent, 50% of the Moon is Illuminated
Sep 22
Waxing Crescent
Sep 29
Full
Oct 7
Last Quarter
Oct 15
New
Oct 21
First Quarter

Hourly Weather History & Observations

Time (AKDT) Temp. Windchill Dew Point Humidity Pressure Visibility Wind Dir Wind Speed Gust Speed Precip Events Conditions
12:16 AM 41.0 °F 38.0 °F 37.4 °F 87% 29.82 in 10.0 mi NE 4.6 mph - N/A   Clear
12:36 AM 39.2 °F 34.2 °F 37.4 °F 93% 29.81 in 10.0 mi ENE 6.9 mph - N/A   Clear
12:56 AM 42.8 °F 40.1 °F 39.2 °F 87% 29.81 in 10.0 mi ENE 4.6 mph - N/A   Clear
1:16 AM 42.8 °F 39.3 °F 39.2 °F 87% 29.80 in 10.0 mi ENE 5.8 mph - N/A   Clear
1:36 AM 42.8 °F 39.3 °F 39.2 °F 87% 29.79 in 10.0 mi ENE 5.8 mph - N/A   Clear
1:56 AM 42.8 °F 39.3 °F 39.2 °F 87% 29.79 in 10.0 mi ENE 5.8 mph - N/A   Clear
2:16 AM 42.8 °F 38.6 °F 39.2 °F 87% 29.77 in 10.0 mi ENE 6.9 mph - N/A   Clear
2:36 AM 42.8 °F 39.3 °F 39.2 °F 87% 29.76 in 10.0 mi ENE 5.8 mph - N/A   Clear
2:56 AM 42.8 °F 38.6 °F 39.2 °F 87% 29.75 in 10.0 mi ENE 6.9 mph - N/A   Clear
3:16 AM 42.8 °F 38.0 °F 39.2 °F 87% 29.74 in 10.0 mi NE 8.1 mph - N/A   Clear
3:36 AM 42.8 °F 37.5 °F 39.2 °F 87% 29.74 in 10.0 mi NE 9.2 mph - N/A   Clear
3:56 AM 42.8 °F 36.6 °F 39.2 °F 87% 29.72 in 10.0 mi NE 11.5 mph - N/A   Clear
4:16 AM 42.8 °F 37.0 °F 39.2 °F 87% 29.72 in 10.0 mi ENE 10.4 mph - N/A   Clear
4:36 AM 42.8 °F 36.6 °F 37.4 °F 81% 29.70 in 10.0 mi NE 11.5 mph - N/A   Clear
4:56 AM 42.8 °F 35.4 °F 37.4 °F 81% 29.69 in 10.0 mi NE 15.0 mph 20.7 mph N/A   Clear
5:16 AM 42.8 °F 36.6 °F 37.4 °F 81% 29.68 in 10.0 mi ENE 11.5 mph 19.6 mph N/A   Clear
5:36 AM 42.8 °F 35.8 °F 37.4 °F 81% 29.66 in 10.0 mi ENE 13.8 mph - N/A   Clear
5:56 AM 42.8 °F 35.8 °F 37.4 °F 81% 29.64 in 10.0 mi NE 13.8 mph 19.6 mph N/A   Clear
6:16 AM 42.8 °F 37.5 °F 37.4 °F 81% 29.64 in 10.0 mi NE 9.2 mph 17.3 mph N/A   Clear
6:36 AM 42.8 °F 38.0 °F 37.4 °F 81% 29.63 in 10.0 mi ENE 8.1 mph - N/A   Clear
6:56 AM 44.6 °F 39.2 °F 37.4 °F 76% 29.62 in 10.0 mi ENE 10.4 mph - N/A   Clear
7:16 AM 44.6 °F 39.7 °F 37.4 °F 76% 29.62 in 10.0 mi NE 9.2 mph - N/A   Clear
7:36 AM 44.6 °F 39.7 °F 37.4 °F 76% 29.61 in 10.0 mi ENE 9.2 mph - N/A   Mostly Cloudy
7:56 AM 44.6 °F 40.2 °F 37.4 °F 76% 29.59 in 10.0 mi ENE 8.1 mph - N/A   Mostly Cloudy
8:16 AM 44.6 °F 39.7 °F 37.4 °F 76% 29.59 in 10.0 mi ENE 9.2 mph - N/A   Mostly Cloudy
8:36 AM 44.6 °F 39.2 °F 37.4 °F 76% 29.58 in 10.0 mi ENE 10.4 mph - N/A   Mostly Cloudy
8:56 AM 44.6 °F 39.2 °F 37.4 °F 76% 29.57 in 10.0 mi NE 10.4 mph - N/A   Mostly Cloudy
9:16 AM 44.6 °F 39.7 °F 37.4 °F 76% 29.56 in 10.0 mi ENE 9.2 mph - N/A   Mostly Cloudy
9:36 AM 46.4 °F 41.9 °F 37.4 °F 71% 29.56 in 10.0 mi ENE 9.2 mph - N/A   Mostly Cloudy
9:56 AM 46.4 °F 41.5 °F 37.4 °F 71% 29.55 in 10.0 mi ENE 10.4 mph - N/A   Mostly Cloudy
10:16 AM 46.4 °F 41.9 °F 39.2 °F 76% 29.55 in 10.0 mi ENE 9.2 mph - N/A   Mostly Cloudy
10:36 AM 46.4 °F 42.4 °F 39.2 °F 76% 29.54 in 10.0 mi ENE 8.1 mph - N/A   Mostly Cloudy
10:56 AM 48.2 °F - 39.2 °F 71% 29.53 in 10.0 mi ENE 9.2 mph - N/A   Mostly Cloudy
11:16 AM 48.2 °F - 39.2 °F 71% 29.51 in 10.0 mi ENE 10.4 mph - N/A   Mostly Cloudy
11:36 AM 50.0 °F - 39.2 °F 66% 29.51 in 10.0 mi NE 9.2 mph - N/A   Mostly Cloudy
11:56 AM 51.8 °F - 39.2 °F 62% 29.51 in 10.0 mi ENE 10.4 mph - N/A   Mostly Cloudy
12:16 PM 53.6 °F - 39.2 °F 58% 29.50 in 10.0 mi ENE 8.1 mph 16.1 mph N/A   Mostly Cloudy
12:36 PM 53.6 °F - 39.2 °F 58% 29.49 in 10.0 mi NE 9.2 mph - N/A   Mostly Cloudy
12:56 PM 55.4 °F - 39.2 °F 54% 29.49 in 10.0 mi ENE 8.1 mph - N/A   Mostly Cloudy
1:16 PM 55.4 °F - 39.2 °F 54% 29.47 in 10.0 mi ENE 10.4 mph 16.1 mph N/A   Mostly Cloudy
1:36 PM 55.4 °F - 41.0 °F 58% 29.47 in 10.0 mi ENE 9.2 mph - N/A   Mostly Cloudy
1:56 PM 55.4 °F - 39.2 °F 54% 29.46 in 10.0 mi NE 10.4 mph - N/A   Mostly Cloudy
2:16 PM 55.4 °F - 41.0 °F 58% 29.45 in 10.0 mi ENE 8.1 mph - N/A   Mostly Cloudy
2:36 PM 57.2 °F - 41.0 °F 55% 29.45 in 10.0 mi ENE 9.2 mph - N/A   Mostly Cloudy
2:56 PM 60.8 °F - 42.8 °F 52% 29.44 in 10.0 mi ENE 10.4 mph - N/A   Mostly Cloudy
3:16 PM 59.0 °F - 42.8 °F 55% 29.43 in 10.0 mi ENE 8.1 mph - N/A   Mostly Cloudy
3:36 PM 59.0 °F - 42.8 °F 55% 29.43 in 10.0 mi NE 6.9 mph - N/A   Mostly Cloudy
3:56 PM 59.0 °F - 42.8 °F 55% 29.42 in 10.0 mi ENE 8.1 mph - N/A   Mostly Cloudy
4:16 PM 60.8 °F - 42.8 °F 52% 29.41 in 10.0 mi NE 11.5 mph - N/A   Mostly Cloudy
4:36 PM 60.8 °F - 42.8 °F 52% 29.40 in 10.0 mi NE 9.2 mph - N/A   Mostly Cloudy
4:56 PM 60.8 °F - 42.8 °F 52% 29.40 in 10.0 mi NE 8.1 mph - N/A   Mostly Cloudy
5:16 PM 60.8 °F - 42.8 °F 52% 29.39 in 10.0 mi NE 8.1 mph - N/A   Scattered Clouds
5:36 PM 60.8 °F - 44.6 °F 55% 29.39 in 10.0 mi NE 10.4 mph - N/A   Scattered Clouds
5:56 PM 60.8 °F - 44.6 °F 55% 29.38 in 10.0 mi NE 9.2 mph - N/A   Mostly Cloudy
6:16 PM 60.8 °F - 44.6 °F 55% 29.38 in 10.0 mi NE 8.1 mph - N/A   Mostly Cloudy
6:36 PM 59.0 °F - 42.8 °F 55% 29.38 in 10.0 mi ENE 4.6 mph - N/A   Mostly Cloudy
6:56 PM 57.2 °F - 42.8 °F 59% 29.39 in 10.0 mi ENE 4.6 mph - N/A   Mostly Cloudy
7:16 PM 57.2 °F - 42.8 °F 59% 29.38 in 10.0 mi ENE 8.1 mph - N/A   Clear
7:36 PM 55.4 °F - 42.8 °F 63% 29.38 in 10.0 mi NE 3.5 mph - N/A   Clear
7:56 PM 55.4 °F - 42.8 °F 63% 29.38 in 10.0 mi ENE 8.1 mph - N/A   Clear
8:16 PM 53.6 °F - 42.8 °F 67% 29.38 in 10.0 mi ENE 6.9 mph - N/A   Clear
8:36 PM 53.6 °F - 42.8 °F 67% 29.37 in 10.0 mi ENE 5.8 mph - N/A   Clear
8:56 PM 51.8 °F - 42.8 °F 71% 29.37 in 10.0 mi ENE 6.9 mph - N/A   Clear
9:16 PM 51.8 °F - 42.8 °F 71% 29.37 in 10.0 mi NE 5.8 mph - N/A   Clear
9:36 PM 51.8 °F - 42.8 °F 71% 29.36 in 10.0 mi NE 3.5 mph - N/A   Clear
9:56 PM 51.8 °F - 42.8 °F 71% 29.36 in 10.0 mi ENE 4.6 mph - N/A   Clear
10:16 PM 50.0 °F - 42.8 °F 76% 29.36 in 10.0 mi ENE 3.5 mph - N/A   Clear
10:36 PM 50.0 °F - 41.0 °F 71% 29.36 in 10.0 mi NE 3.5 mph - N/A   Clear
10:56 PM 48.2 °F - 41.0 °F 76% 29.35 in 10.0 mi ENE 4.6 mph - N/A   Clear
11:16 PM 48.2 °F - 41.0 °F 76% 29.34 in 10.0 mi ENE 4.6 mph - N/A   Clear
11:36 PM 48.2 °F - 41.0 °F 76% 29.34 in 10.0 mi NE 3.5 mph - N/A   Clear
11:56 PM 46.4 °F 44.3 °F 41.0 °F 81% 29.34 in 10.0 mi ENE 4.6 mph - N/A   Clear